User: anonymous
Location: Caltech
(34.1382°N, 118.1253°W)
Time: 23:24:10
(UTC-07:00)
Language:

MaSat-1 - Orbit

View from above orbital plane
View from above orbital plane
View from above satellite
View from above satellite

Ground track
Ground track

The orbit data is extracted from the following two-line orbital elements,

1 38081U 12006E   14274.81265084  .00245592  16483-4  21621-2 0  4678
2 38081 069.4542 066.2690 0300404 199.9706 281.3861 15.28048501139649
Epoch (UTC): 01 October 2014 19:30:13
Eccentricity: 0.0300404
inclination: 69.4542°
perigee height: 275 km
apogee height: 688 km
right ascension of ascending node: 66.2690°
argument of perigee: 199.9706°
revolutions per day: 15.28048501
mean anomaly at epoch: 281.3861°
orbit number at epoch: 13964

The dashed part of the orbit path shows where the satellite is in the earth's shadow,  

DLR